McGuire AFB, NJ

12:11 AM EDT on July 21, 2017 (GMT -0400)
McGuire Air Force Base

Weather History for KWRI - January, 2013

Change the Weather History Date:

Tuesday, January 1, 2013

  Actual Average Record
Temperature  
Mean Temperature 36 °F -  
Max Temperature 41 °F 41 °F 62 °F (2005)
Min Temperature 29 °F 25 °F 12 °F (1999)
Degree Days  
Heating Degree Days 30    
Moisture  
Dew Point 25 °F    
Average Humidity 61    
Maximum Humidity 69    
Minimum Humidity 53    
Precipitation  
Precipitation 0.00 in - - ()
Sea Level Pressure  
Sea Level Pressure 29.92 in    
Wind  
Wind Speed 10 mph (West)    
Max Wind Speed 14 mph    
Max Gust Speed 22 mph    
Visibility 10 miles    
Events      
Averages and records for this station are not official NWS values.
T = Trace of Precipitation, MM = Missing Value Source: NWS Daily Summary

Daily Weather History Graph

Daily Weather History Graph

Search for Another Location

Airport or City:

Trip Planner

Search our weather history database for the weather conditions in past years. The results will help you decide how hot, cold, wet, or windy it might be!

Date:

Astronomy

Jan. 01, 2013 Rise Set
Actual Time 7:20 AM EST 4:44 PM EST
Civil Twilight 6:49 AM EST 5:14 PM EST
Nautical Twilight 6:15 AM EST 5:48 PM EST
Astronomical Twilight 5:43 AM EST 6:21 PM EST
Moon 9:12 PM EST (1/1) 9:31 AM EST (1/1)
Length of Visible Light 10h 24m
Length of Day
9h 23m
Waning Gibbous, 83% of the Moon is Illuminated
Jan 1
Waning Gibbous
Jan 4
Last Quarter
Jan 11
New
Jan 18
First Quarter
Jan 26
Full

Hourly Weather History & Observations

Time (EST) Temp. Windchill Dew Point Humidity Pressure Visibility Wind Dir Wind Speed Gust Speed Precip Events Conditions
12:55 AM 41.0 °F 34.3 °F 25.2 °F 53% 29.90 in 10.0 mi WSW 11.5 mph 20.7 mph N/A   Overcast
1:55 AM 40.5 °F 34.1 °F 26.1 °F 57% 29.91 in 10.0 mi WSW 10.4 mph - N/A   Partly Cloudy
2:55 AM 40.8 °F 34.5 °F 26.8 °F 57% 29.92 in 10.0 mi WSW 10.4 mph - N/A   Mostly Cloudy
3:55 AM 41.2 °F 33.7 °F 27.1 °F 57% 29.91 in 10.0 mi WSW 13.8 mph - N/A   Overcast
4:55 AM 40.1 °F 35.3 °F 27.5 °F 61% 29.90 in 10.0 mi West 6.9 mph - N/A   Scattered Clouds
5:55 AM 38.7 °F 34.3 °F 28.0 °F 66% 29.91 in 10.0 mi West 5.8 mph - N/A   Clear
6:55 AM 37.6 °F 34.0 °F 28.0 °F 68% 29.92 in 10.0 mi West 4.6 mph - N/A   Clear
7:55 AM 38.1 °F 33.7 °F 28.6 °F 69% 29.92 in 10.0 mi WSW 5.8 mph - N/A   Scattered Clouds
8:55 AM 39.4 °F 33.2 °F 28.6 °F 65% 29.93 in 10.0 mi West 9.2 mph - N/A   Overcast
9:55 AM 40.1 °F 34.7 °F 28.4 °F 63% 29.94 in 10.0 mi West 8.1 mph - N/A   Overcast
10:55 AM 40.3 °F 34.4 °F 27.7 °F 61% 29.93 in 10.0 mi West 9.2 mph - N/A   Overcast
11:55 AM 40.8 °F 35.0 °F 27.9 °F 60% 29.90 in 10.0 mi West 9.2 mph 21.9 mph N/A   Mostly Cloudy
12:55 PM 40.5 °F 33.6 °F 27.1 °F 59% 29.88 in 10.0 mi West 11.5 mph - N/A   Overcast
1:55 PM 40.1 °F 33.2 °F 27.1 °F 60% 29.85 in 10.0 mi West 11.5 mph - N/A   Scattered Clouds
2:55 PM 39.9 °F 32.5 °F 26.8 °F 59% 29.86 in 10.0 mi West 12.7 mph - N/A   Partly Cloudy
3:55 PM 39.2 °F 33.0 °F 26.6 °F 61% 29.89 in 10.0 mi West 9.2 mph - N/A   Partly Cloudy
4:55 PM 38.5 °F 32.1 °F 26.6 °F 62% 29.90 in 10.0 mi WNW 9.2 mph - N/A   Partly Cloudy
5:55 PM 37.2 °F 30.6 °F 27.0 °F 66% 29.92 in 10.0 mi NW 9.2 mph - N/A   Overcast
6:55 PM 36.9 °F 29.6 °F 24.8 °F 62% 29.94 in 10.0 mi WNW 10.4 mph - N/A   Overcast
7:55 PM 34.5 °F 27.3 °F 22.5 °F 61% 29.97 in 10.0 mi NW 9.2 mph - N/A   Clear
8:55 PM 31.8 °F 23.9 °F 21.0 °F 64% 29.97 in 10.0 mi NNW 9.2 mph - N/A   Clear
9:55 PM 31.1 °F 23.1 °F 18.7 °F 60% 29.97 in 10.0 mi NNW 9.2 mph - N/A   Clear
10:55 PM 30.9 °F 22.2 °F 15.6 °F 53% 30.00 in 10.0 mi NW 10.4 mph - N/A   Clear
11:55 PM 29.8 °F 20.9 °F 16.3 °F 57% 30.01 in 10.0 mi NNW 10.4 mph - N/A   Clear